Wind_Speed
25 24 21 20 19 19 17 16 15 15 14 13 13 13 13 11 10 9 8 7 6 6 5 5 5 5 6 7 8 9 10 12 13 14 15 16 17 16 15 14 14 13 12 10
22 21 20 20 19 18 16 15 14 14 13 13 12 12 13 12 11 9 9 8 7 6 6 6 5 5 6 7 8 9 10 12 13 14 16 16 17 17 16 15 14 14 12 10
19 20 21 19 18 17 15 14 14 13 12 13 12 12 13 12 11 10 9 8 7 7 6 6 5 5 6 7 8 10 11 12 13 14 15 16 17 17 16 15 14 14 13 11
20 20 20 19 17 16 15 14 14 13 12 12 12 12 12 12 11 10 9 9 8 7 6 6 5 5 6 7 8 10 11 12 13 14 15 16 16 16 16 15 14 14 13 12
18 18 18 17 17 17 15 14 14 13 12 12 12 12 11 12 11 10 9 9 8 7 6 6 6 6 6 7 8 9 10 11 12 13 14 15 16 16 16 15 15 14 13 13
17 17 17 17 16 15 14 14 13 12 12 12 12 12 10 11 11 10 10 9 9 8 6 6 6 6 6 7 8 9 10 11 12 13 14 15 15 16 16 15 15 14 14 13
15 15 15 15 14 14 14 13 12 12 12 13 12 12 11 11 10 10 10 10 9 8 7 6 6 6 6 7 8 9 10 11 12 12 13 14 15 16 16 15 15 14 14 13
13 13 14 14 13 13 13 12 12 12 12 13 12 12 12 11 11 10 10 10 10 9 8 7 6 6 6 7 8 8 9 10 11 12 13 14 15 16 16 15 15 14 14 14
12 12 13 13 13 13 13 13 13 13 13 12 12 11 12 12 11 11 11 11 10 9 8 7 7 6 6 7 8 8 9 10 11 12 13 14 15 15 15 15 15 15 14 14
10 11 11 11 12 11 12 13 13 13 14 13 11 11 12 12 12 12 12 12 11 10 9 8 7 6 6 7 7 8 9 10 11 12 13 14 14 15 15 15 15 15 14 14
8 9 10 10 11 12 12 13 13 14 15 14 13 12 13 13 13 13 13 13 13 11 10 9 8 7 6 7 7 8 9 10 10 11 12 13 14 15 15 15 15 14 14 14
6 7 9 10 11 12 13 13 14 15 15 14 14 12 15 15 15 15 15 15 14 13 11 10 9 7 7 7 7 8 9 10 10 11 12 13 14 14 14 15 15 14 14 14
6 7 8 10 12 13 14 14 15 16 16 16 15 13 16 16 16 16 17 16 15 14 13 11 9 8 8 7 7 8 9 9 10 11 12 13 13 14 14 15 15 15 15 15
7 8 9 11 13 15 15 16 17 18 18 17 16 15 17 18 18 18 17 17 16 15 14 12 11 9 9 8 8 8 9 9 10 11 11 12 13 14 15 15 15 15 15 16
9 10 12 13 14 15 16 17 18 19 19 19 16 17 17 19 19 18 18 18 17 16 15 14 12 11 10 9 9 9 9 9 10 11 11 12 13 14 15 15 15 15 15 15
11 12 13 15 16 17 17 17 19 20 19 19 18 16 18 20 19 19 18 18 18 17 16 15 14 12 11 11 10 10 10 10 10 11 11 12 13 14 15 15 16 15 15 15
13 14 15 15 17 18 17 17 19 19 19 19 19 18 20 20 19 19 19 18 18 18 17 16 15 14 13 12 12 11 11 11 11 11 12 13 13 14 15 16 16 16 16 16
16 17 18 17 18 19 16 17 18 19 18 19 19 19 20 20 20 19 19 19 18 19 18 17 16 15 15 14 14 13 12 12 12 12 13 13 14 14 15 16 16 16 16 16
19 19 20 20 20 19 18 18 18 19 18 20 20 20 21 21 20 20 20 20 19 20 19 18 18 17 16 16 15 15 14 14 13 13 13 14 14 15 15 16 17 17 17 17
21 22 23 23 23 22 20 20 20 20 20 21 21 21 21 21 20 21 22 21 20 20 20 20 19 18 18 18 17 17 16 15 15 15 14 15 15 16 16 17 17 18 18 18
24 25 25 26 26 25 23 22 22 22 23 22 23 23 22 22 23 23 23 22 22 22 22 21 21 20 20 19 19 19 18 17 17 16 16 16 16 17 17 18 18 18 18 19
27 27 27 28 28 28 26 26 26 26 25 24 25 25 24 24 25 25 25 24 24 24 23 23 23 22 22 21 21 21 20 19 19 18 18 17 18 18 18 18 19 19 19 19
31 31 31 30 31 31 30 30 30 29 28 27 27 27 27 26 27 27 27 26 26 26 26 25 25 24 24 23 23 23 22 21 21 20 19 19 19 19 19 20 20 20 20 20
35 35 35 34 33 33 33 34 34 33 33 32 31 30 30 30 29 29 29 28 28 28 27 27 27 26 26 25 25 25 24 23 23 22 21 21 21 21 21 21 22 22 21 21
39 39 39 39 37 37 37 38 38 37 37 36 35 34 34 33 32 32 32 31 30 30 29 29 29 28 28 28 27 27 26 25 25 24 23 23 22 22 22 23 23 23 23 23
41 42 43 43 42 43 41 41 41 41 41 40 39 38 38 37 36 35 34 34 33 32 31 31 30 30 30 30 29 29 28 27 27 26 25 25 24 24 24 24 24 24 24 24
Wind_Direction
204 206 206 206 210 214 219 224 234 246 250 256 266 271 271 272 272 267 266 269 270 271 275 288 299 315 327 338 345 349 352 355 356 355 356 356 356 355 353 352 352 350 346 340
197 198 198 203 207 211 218 226 235 243 248 254 262 271 272 269 270 263 262 262 262 262 269 284 295 311 325 336 342 347 350 352 354 356 357 358 358 359 357 356 356 356 353 348
192 193 198 202 206 211 218 227 236 245 252 259 265 271 273 270 268 261 259 255 254 253 264 280 290 308 322 332 339 344 347 349 353 355 357 359 360 1 1 360 359 359 0 358
186 191 197 200 203 208 217 228 238 248 257 265 267 270 269 270 266 259 255 249 245 245 259 275 284 301 317 328 336 341 345 349 352 355 357 360 1 1 2 3 3 3 3 2
184 190 194 197 202 209 218 228 241 252 261 268 271 272 270 270 266 260 253 244 238 239 253 269 281 296 313 325 333 339 344 348 352 356 359 0 2 3 4 5 5 5 5 6
183 190 194 199 206 212 220 230 245 256 264 270 272 274 272 267 261 254 246 239 234 238 250 264 276 291 310 322 331 336 342 347 351 356 359 1 2 4 4 5 6 6 6 6
182 191 197 203 210 215 222 233 250 262 269 273 273 274 271 264 253 245 238 233 233 238 247 258 270 286 306 320 328 334 341 346 351 354 357 0 3 4 5 5 6 7 7 6
184 193 200 206 213 219 228 240 250 262 268 272 272 274 268 260 248 241 235 232 232 237 245 253 264 282 304 316 326 333 339 345 351 354 357 360 2 4 5 6 6 7 6 6
189 201 206 212 218 228 239 246 256 263 268 272 272 270 264 256 247 238 232 230 232 237 242 247 258 278 300 314 324 331 336 343 349 353 356 359 0 1 3 4 5 6 6 6
193 204 211 218 227 235 244 250 258 266 273 274 269 265 261 255 248 240 233 230 231 236 239 244 255 274 295 311 321 328 334 339 345 349 353 356 358 359 0 1 3 4 4 4
199 211 222 231 235 245 250 254 260 265 270 274 270 262 258 254 248 241 234 231 233 235 237 243 255 271 289 305 315 325 333 339 342 346 350 353 356 358 359 359 359 0 0 0
215 223 236 244 246 250 254 259 264 268 272 271 269 263 258 254 247 242 236 233 234 235 237 244 254 267 281 295 307 319 329 337 342 345 348 350 353 355 357 358 358 357 356 356
233 235 247 256 258 258 261 264 267 269 271 272 271 265 258 253 247 242 238 234 234 235 237 243 252 262 274 285 298 312 324 331 338 342 347 349 351 353 355 355 355 355 354 353
254 250 251 254 259 264 266 267 268 269 272 272 268 262 258 256 248 244 240 237 236 236 238 243 251 259 266 276 289 304 316 325 331 336 341 345 349 351 351 351 351 351 351 351
265 262 263 264 266 268 269 270 269 269 271 271 266 259 254 253 249 245 242 239 238 238 239 244 250 256 262 270 282 295 308 318 324 329 335 340 343 347 349 349 348 347 347 347
277 271 270 271 273 273 273 274 273 271 270 267 262 256 251 250 250 246 242 239 238 239 241 246 250 255 259 266 276 287 299 310 318 323 328 333 337 340 343 345 345 345 344 343
281 278 276 275 275 276 277 276 274 273 270 266 261 255 251 250 249 245 241 239 239 240 242 246 251 255 259 263 271 281 290 301 309 315 320 326 330 334 337 339 340 341 341 340
281 278 278 277 276 275 278 273 272 272 270 265 261 255 251 249 247 245 243 241 241 241 242 245 250 254 258 262 268 276 284 292 300 307 313 319 323 328 332 334 335 336 337 337
281 279 278 277 276 276 274 274 272 270 268 264 258 252 250 249 246 245 243 242 242 242 244 247 250 253 257 261 266 271 278 286 293 299 306 312 317 322 326 329 331 332 332 332
278 277 277 277 277 276 275 272 272 270 266 261 257 254 252 248 244 242 242 243 243 243 245 248 251 253 256 259 264 269 274 280 286 293 299 305 310 315 320 325 327 328 328 327
276 275 274 275 275 275 273 271 269 266 263 261 259 256 253 249 246 244 245 244 244 244 246 248 250 253 256 259 262 266 271 275 281 287 292 298 304 309 314 319 323 324 324 324
277 275 273 272 271 272 271 269 267 265 264 261 259 257 255 252 249 248 247 246 245 246 247 248 251 253 256 258 261 264 268 272 277 281 286 292 297 303 308 313 317 319 320 321
275 274 273 271 270 270 269 267 266 264 262 260 258 256 255 253 251 250 249 247 246 246 247 249 251 253 255 257 260 263 266 269 273 277 281 286 292 297 302 306 310 314 315 316
274 273 272 270 269 269 267 266 264 263 261 259 258 256 255 254 252 251 251 249 248 248 248 249 251 253 255 257 259 262 264 267 271 274 278 282 287 292 297 301 305 308 310 311
275 274 272 270 268 266 264 264 263 262 261 259 258 256 255 255 253 252 251 250 250 250 250 250 251 253 254 256 258 260 263 265 268 271 275 279 283 288 292 297 301 304 306 307
275 274 272 271 268 266 264 263 262 262 261 260 258 257 256 255 254 253 252 251 251 251 252 252 252 254 255 256 258 259 261 264 266 269 272 276 280 285 289 293 297 300 302 304
Height
5818 5826 5831 5837 5840 5844 5846 5849 5850 5851 5852 5852 5853 5853 5852 5852 5852 5852 5852 5852 5852 5852 5851 5850 5849 5848 5846 5844 5841 5838 5835 5832 5828 5824 5820 5816 5812 5807 5803 5799 5795 5791 5788 5785
5819 5824 5830 5833 5837 5841 5844 5846 5847 5848 5849 5850 5850 5850 5850 5850 5850 5850 5850 5850 5850 5850 5850 5849 5848 5846 5845 5843 5840 5837 5834 5831 5827 5824 5820 5815 5811 5806 5802 5798 5794 5791 5787 5784
5818 5824 5827 5832 5836 5839 5841 5844 5845 5846 5847 5847 5848 5849 5848 5848 5848 5848 5848 5848 5848 5848 5848 5848 5846 5845 5844 5841 5839 5836 5833 5830 5826 5823 5819 5815 5810 5806 5802 5798 5794 5790 5787 5784
5817 5822 5826 5830 5834 5836 5839 5841 5842 5843 5844 5845 5846 5846 5846 5845 5845 5846 5846 5846 5846 5847 5847 5846 5845 5844 5842 5840 5838 5835 5832 5829 5826 5822 5818 5814 5810 5806 5802 5797 5794 5790 5787 5784
5818 5821 5825 5829 5832 5834 5837 5839 5840 5841 5842 5843 5843 5844 5845 5843 5843 5843 5844 5844 5845 5845 5845 5844 5844 5842 5841 5839 5837 5834 5831 5828 5825 5821 5818 5814 5810 5806 5801 5797 5794 5790 5787 5784
5818 5821 5824 5828 5830 5833 5835 5837 5839 5839 5840 5842 5841 5841 5842 5841 5841 5841 5841 5842 5843 5843 5843 5843 5842 5841 5839 5838 5835 5833 5830 5827 5824 5821 5817 5813 5809 5805 5801 5798 5794 5790 5787 5784
5818 5822 5824 5827 5829 5832 5834 5836 5838 5838 5839 5839 5839 5838 5839 5838 5838 5838 5839 5840 5840 5841 5841 5841 5840 5839 5838 5836 5834 5832 5829 5826 5823 5820 5817 5813 5809 5805 5801 5797 5794 5790 5787 5784
5819 5822 5824 5826 5829 5831 5832 5835 5837 5837 5837 5837 5836 5836 5837 5836 5836 5836 5837 5838 5838 5839 5839 5839 5839 5838 5836 5835 5833 5831 5828 5825 5822 5819 5816 5812 5809 5805 5801 5797 5794 5790 5787 5784
5819 5822 5824 5825 5827 5829 5831 5832 5834 5834 5834 5834 5834 5834 5834 5833 5833 5834 5834 5835 5836 5837 5837 5837 5837 5836 5835 5833 5831 5829 5827 5824 5821 5818 5815 5812 5808 5804 5801 5797 5794 5790 5787 5784
5819 5821 5823 5824 5826 5828 5829 5830 5831 5831 5831 5831 5832 5831 5831 5830 5830 5831 5832 5833 5834 5835 5835 5835 5835 5834 5833 5831 5830 5828 5825 5823 5820 5817 5814 5811 5807 5804 5801 5797 5794 5790 5787 5784
5819 5822 5823 5824 5825 5826 5827 5828 5828 5828 5828 5828 5828 5831 5828 5827 5828 5828 5829 5830 5831 5832 5832 5833 5832 5832 5831 5829 5828 5826 5824 5821 5819 5816 5813 5810 5807 5803 5800 5797 5793 5790 5787 5784
5819 5821 5822 5823 5823 5823 5824 5825 5825 5825 5825 5824 5824 5828 5824 5824 5824 5825 5826 5827 5828 5829 5830 5830 5830 5829 5828 5827 5826 5824 5822 5820 5817 5815 5812 5809 5806 5802 5799 5796 5793 5790 5786 5783
5819 5820 5821 5821 5823 5822 5821 5821 5821 5821 5821 5820 5821 5824 5820 5820 5820 5821 5822 5824 5825 5826 5826 5827 5827 5826 5826 5825 5824 5822 5820 5818 5816 5813 5811 5808 5805 5802 5798 5795 5792 5789 5786 5782
5817 5818 5820 5820 5819 5818 5818 5818 5817 5817 5816 5816 5817 5817 5816 5816 5816 5817 5819 5820 5821 5822 5823 5824 5824 5823 5823 5822 5821 5820 5818 5816 5814 5812 5809 5807 5804 5800 5797 5794 5791 5788 5785 5781
5815 5815 5815 5815 5814 5814 5814 5813 5812 5812 5812 5812 5812 5812 5812 5811 5812 5813 5815 5816 5818 5819 5820 5820 5821 5820 5820 5820 5819 5817 5816 5814 5812 5810 5807 5805 5802 5799 5796 5793 5790 5787 5783 5780
5812 5812 5812 5811 5810 5809 5809 5809 5807 5807 5806 5806 5806 5807 5807 5807 5808 5809 5810 5812 5813 5815 5816 5817 5817 5817 5817 5816 5816 5815 5813 5812 5810 5807 5805 5803 5800 5797 5794 5791 5788 5785 5782 5779
5809 5808 5808 5807 5806 5805 5805 5804 5803 5802 5802 5801 5801 5803 5802 5802 5803 5804 5806 5807 5809 5810 5811 5812 5813 5813 5813 5813 5812 5811 5810 5809 5807 5805 5803 5800 5798 5795 5793 5790 5786 5783 5780 5777
5805 5804 5803 5802 5802 5801 5803 5800 5798 5797 5797 5796 5796 5796 5797 5797 5798 5800 5801 5803 5804 5805 5806 5807 5808 5809 5809 5809 5808 5808 5807 5805 5804 5802 5800 5798 5795 5793 5790 5787 5784 5781 5778 5775
5800 5799 5798 5797 5796 5796 5797 5795 5793 5792 5792 5791 5791 5791 5791 5792 5794 5795 5796 5797 5799 5800 5801 5802 5803 5804 5804 5804 5804 5803 5802 5801 5800 5798 5796 5794 5792 5790 5787 5785 5782 5779 5776 5773
5794 5793 5793 5791 5790 5790 5792 5789 5788 5788 5787 5786 5785 5786 5786 5787 5789 5790 5790 5792 5794 5795 5796 5797 5798 5798 5799 5799 5799 5798 5798 5797 5796 5794 5793 5791 5789 5786 5784 5781 5778 5776 5773 5770
5788 5787 5786 5784 5783 5783 5784 5783 5782 5783 5782 5780 5780 5780 5781 5781 5783 5784 5785 5786 5787 5789 5790 5791 5792 5792 5793 5793 5793 5793 5792 5792 5791 5789 5788 5786 5785 5782 5780 5778 5775 5772 5769 5766
5780 5779 5779 5778 5776 5778 5775 5775 5775 5774 5774 5773 5773 5774 5775 5775 5776 5777 5778 5780 5781 5782 5783 5784 5785 5786 5786 5787 5787 5787 5787 5786 5785 5784 5783 5781 5780 5778 5776 5773 5771 5768 5765 5763
5771 5771 5769 5770 5770 5768 5767 5766 5765 5765 5766 5766 5766 5766 5767 5768 5769 5770 5771 5772 5773 5775 5776 5777 5778 5779 5779 5780 5780 5780 5780 5780 5779 5778 5777 5776 5774 5773 5771 5769 5766 5764 5761 5758
5761 5760 5759 5758 5759 5758 5757 5756 5755 5756 5756 5757 5757 5758 5758 5759 5761 5762 5763 5764 5765 5766 5768 5769 5770 5771 5771 5772 5772 5773 5773 5772 5772 5771 5771 5770 5768 5767 5765 5763 5761 5758 5756 5753
5749 5748 5747 5746 5748 5747 5746 5744 5744 5745 5745 5746 5747 5748 5749 5750 5751 5752 5754 5755 5756 5757 5759 5760 5761 5762 5763 5763 5764 5765 5765 5765 5765 5764 5764 5763 5762 5760 5759 5757 5755 5752 5750 5748
5737 5735 5733 5733 5734 5732 5734 5733 5732 5732 5733 5734 5735 5737 5738 5739 5740 5742 5743 5745 5746 5748 5749 5750 5752 5753 5754 5755 5755 5756 5756 5757 5757 5756 5756 5755 5754 5753 5752 5750 5748 5746 5744 5741